User: anonymous   Login
Location: Unspecified
(0.0000°N, 0.0000°E)
Time: 07:53:20
(UTC+00:00)
Language:

PAYLOAD F - Orbit

View from above orbital plane
View from above orbital plane
View from above satellite
View from above satellite

Ground track
Ground track

The orbit data is extracted from the following two-line orbital elements,

1 27060U 01058F   17329.15775857  .00000029  00000-0  10327-3 0  9993
2 27060  82.5448  43.4640 0008045 187.5038 172.5934 12.62994732733535
Epoch (UTC): 25 November 2017 03:47:10
Eccentricity: 0.0008045
inclination: 82.5448°
perigee height: 1404 km
apogee height: 1417 km
right ascension of ascending node: 43.4640°
argument of perigee: 187.5038°
revolutions per day: 12.62994732
mean anomaly at epoch: 172.5934°
orbit number at epoch: 73353

The dashed part of the orbit path shows where the satellite is in the earth's shadow,  

DLR